Current weather by "City, St" or "zip code"  
 

Current Conditions: GRAND ISLAND

NULL


57.9 F

Last Updated on May 26 2024, 03:53 AM CDT
Humidity: 90%
Wind Speed: SW 4.7 mph
Barometer 29.57 in
Dewpoint: 55.0 F
Visibility: 10.00 mi
Precip: --
Heat Index: NA
Wind Chill: NA
Current conditions at:

GRAND ISLAND (KGRI)

Lat: 40.97 Lon: 98.3199999

active severe weather and emergency alerts image image weather storm and storm spotter reports image weather observation monitoring service image
Active
Alerts
Storm Reports Obs
Monitoring

Sign-up For Email & Text Message Weather Alert Notification Services



Advertise Here

Observation History for GRAND ISLAND


Time Wind
(mph)
Vis
(mi)
Weather Precip (in) Temperature (F) Relative
Humidity
Wind
Chill
(F)
Heat
Index
(F)
Pressure
Air Dwpt altimeter
(in)
sea level
(mb)
Rmks
03:53 AM CDT SW 4.7 10.00 NULL -- 57.9 55.0 90% NA NA 29.57 1001.4
02:53 AM CDT 8.1 10.00 Clear -- 59.0 55.9 90% NA NA 29.57 1001.4
01:53 AM CDT 5.8 10.00 Clear -- 63.0 55.9 78% NA NA 29.58 1001.7
12:53 AM CDT 4.7 10.00 Clear -- 64.0 54.0 70% NA NA 29.56 1001.0
11:53 PM CDT 10.00 Clear -- 64.9 54.0 68% NA NA 29.53 1000.0
11:39 PM CDT 8.1 10.00 Mostly Clear -- 64.9 54.0 68% NA NA 29.54 1000.3
11:13 PM CDT NW 9.2 10.00 Mostly Cloudy -- 68.0 54.0 61% NA NA M
10:53 PM CDT 13.9 10.00 Mostly Cloudy Trace 66.0 55.0 68% NA NA M
09:53 PM CDT NE 6.9 10.00 Clear -- NULL 54.0 % NA NA M
08:53 PM CDT 9.2 10.00 Clear -- 70.0 53.1 55% NA NA 29.55 1000.7
07:53 PM CDT SE 9.2 10.00 Clear -- 73.9 50.0 43% NA 73.0 29.57 1001.4
06:53 PM CDT 13.9 10.00 Clear -- 75.0 48.9 40% NA 74.1 29.57 1001.4
05:53 PM CDT S 17.2 10.00 Clear -- 78.1 46.9 33% NA 77.2 29.61 1002.7
04:53 PM CDT S 15.0 10.00 Clear -- 75.9 46.0 35% NA 74.8 29.63 1003.4
03:53 PM CDT 16.1 10.00 Clear -- 75.0 45.0 34% NA 73.8 29.66 1004.4
02:53 PM CDT S 21.9 10.00 Clear and Windy -- 75.0 46.9 37% NA 73.9 29.68 1005.1
01:53 PM CDT S 20.8 10.00 Clear and Windy -- 75.0 46.0 36% NA 73.9 29.72 1006.4
12:53 PM CDT 18.3 10.00 Clear -- 73.9 44.1 34% NA 72.7 29.76 1007.8
11:53 AM CDT S 17.2 10.00 Clear -- 71.1 46.0 41% NA 69.8 29.81 1009.2
10:53 AM CDT S 16.1 10.00 Clear -- 68.0 50.0 53% NA NA 29.82 1009.8
09:53 AM CDT S 18.3 10.00 Clear -- 64.9 50.0 58% NA NA 29.83 1010.2
08:53 AM CDT 10.00 Mostly Cloudy -- 61.0 48.0 62% NA NA 29.83 1010.2
07:53 AM CDT S 13.9 10.00 Mostly Cloudy -- 59.0 48.0 67% NA NA 29.84 1010.5
06:53 AM CDT S 12.8 10.00 Clear -- 57.0 46.9 69% NA NA 29.84 1010.5

Regional Weather Observation


ORD/SHARP FIELD (KODX)

NULL
54.0 F

AURORA (KAUH)

NULL
58.6 F

ALBION MUNI (KBVN)

NULL
57.0 F

HASTINGS (KHSI)

NULL
55.9 F

KEARNEY MUNI (KEAR)

NULL
57.9 F

YORK (KJYR)

NULL
59.0 F

Advertise Here


Advertise Here